Rbgn^[z[y[W
メイン
   新天体発見情報
     Comet C/2019 C1 (ATLAS)
投稿するにはまず登録を

スレッド表示 | 新しいものから 前のトピック | 次のトピック | 下へ
投稿者 スレッド
佐藤裕久
投稿日時: 2020-2-7 11:47
モデレータ
登録日: 2005-6-12
居住地: 日本
投稿: 2505
オンライン
Comet C/2019 C1 (ATLAS)

2019年2月5.5日UT、ハワイ Mauna Loaにある小惑星地球衝突最終警報システム Asteroid 
Terrestrial-impact Last Alert System (ATLAS)調査プログラムのコースに0.5-m f/2 
Schmidt反射望遠鏡で得たCCD画像から小惑星状天体が発見されたが、他の場所のCCD位置
観測者によって彗星状の外観があることがわかった。また、2019年1月14日、Haleakalaに
ある0.5-m 反射望遠鏡で得た発見前のATLASの観測がある。
この天体は彗星のような軌道によりA/2019 C1との符号がつけられ、MPEC 2019-D42に発表
されていた。
M. Micheliの報告によると、2019年3月5.37日UT、K. J. MeechとJ. Kleynaは、Mauna Kea
にある3.6-m Canada-France-Hawaii望遠鏡で得た120秒のr-バンド画像から、北西に約7"
の曲がった尾が見え、小さなコマのFWHM(半値全幅)がシーイングが0".75に対して1".0 で
あった。佐藤英貴氏(東京都文京区, iTelescope天文台, 0.51-m f/6.8 アストログラフ, 
Siding Spring, 遠隔操作)は、2019年11月7日、60秒露出8枚のスタックで、強い集光した
8" のコマがあり、p.a. 270-300°にわたって12"の扇状の尾が見える。6".6の円形範囲で
測定した光度は17.8等であった。佐藤英貴氏はさらに2019年12月27.7日、60秒露出6枚の
スタックで、強い集光した12" のコマがあり、p.a. 275°に向かって30"の尾が見える。
8".4.の円形範囲で測定した光度は17.2等であった。

報告は次の通り:

OC  Date     Reporter       Instrument       Tail
568 20190305 Micheli        3.6-m CFHT       ~7" curved to the NW    120s
Q62 20191107 Sato           0.5-m reflector  12" in P.A. 270-300
675 20191216 Ye             5.1-m Hale       6".5 in P.A, 280
T05 20191224 Fitzsimmons    0.5-m reflector  8" in P.A. 280
Q62 20191227 Sato           0.51-m reflector 30" in P.A. 275       6 x 60s

発見位置は次のとおり、

     2019 UT             R.A. (2000) Decl.       Mag.
     Jan. 14.47015    8 46 43.26   -23 14 57.7   18.4
          14.48665    8 46 42.93   -23 14 57.9   18.4
          14.48939    8 46 42.86   -23 14 58.8   18.3
          14.49626    8 46 42.72   -23 14 58.7   18.6
          14.50084    8 46 42.71   -23 14 59.4   18.7
          14.50541    8 46 42.57   -23 14 59.0   18.6
          14.50861    8 46 42.52   -23 14 59.6   18.1
          14.51856    8 46 42.24   -23 14 58.8   18.2
     Feb.  5.45997    8 39 48.24   -23 02 23.3   17.7
           5.46504    8 39 48.22   -23 02 23.1   18.1
           5.47333    8 39 48.06   -23 02 21.8   18.4
           5.48807    8 39 47.77   -23 02 20.1   18.3

MPCの放物線軌道要素と位置推算表は次のとおり、

Orbital elements:
    C/2019 C1 (ATLAS)                                                           
Epoch 2020 Apr. 21.0 TT = JDT 2458960.5                                         
T 2020 May 5.72056 TT                                   Williams                
q   6.5812611            (2000.0)            P               Q                  
z  +0.0012099      Peri.  319.18938     -0.92230287     -0.22382995             
 +/-0.0000039      Node   212.39727     +0.19032785     -0.97256226             
e   0.9920376      Incl.   36.01643     -0.33635210     +0.06342555             
From 160 observations 2019 Jan. 14-2020 Jan. 31, mean residual 0".4.            
                                                                                
    C/2019 C1 (ATLAS)                                                           
Epoch 2020 May 31.0 TT = JDT 2459000.5                                          
T 2020 May 5.72522 TT                                   Williams                
q   6.5812612            (2000.0)            P               Q                  
z  +0.0012318      Peri.  319.19094     -0.92230437     -0.22383069             
 +/-0.0000039      Node   212.39583     +0.19032102     -0.97256054             
e   0.9918930      Incl.   36.01743     -0.33635183     +0.06344937             
From 160 observations 2019 Jan. 14-2020 Jan. 31, mean residual 0".4.            
                                                                                
Ephemeris:
Date    TT    R. A. (2000) Decl.     Delta      r    Elong.  Phase   m1
2020 01 04    10 59 50.2 -24 46 59   6.3247  6.6321   104.0     8.3  17.7
...
2020 01 19    10 59 43.2 -25 15 19   6.1176  6.6205   116.9     7.6  17.6
...
2020 01 27    10 58 50.7 -25 21 43   6.0184  6.6149   123.6     7.1  17.6
...
2020 02 02    10 57 51.7 -25 22 04   5.9509  6.6110   128.6     6.7  17.6
2020 02 03    10 57 40.4 -25 21 44   5.9403  6.6103   129.4     6.6  17.6
2020 02 04    10 57 28.7 -25 21 18   5.9298  6.6097   130.3     6.5  17.6
...
2020 02 10    10 56 10.8 -25 16 19   5.8714  6.6061   135.0     6.1  17.5
...
2020 02 18    10 54 09.9 -25 03 19   5.8055  6.6017   140.9     5.4  17.5
...
2020 03 04    10 49 54.2 -24 19 45   5.7238  6.5946   149.1     4.4  17.5

(CBET 4721、MPEC 2020-C61)

スレッド表示 | 新しいものから 前のトピック | 次のトピック | トップ

投稿するにはまず登録を
 
© 1999 Tsutomu Seki.